Theta_e
296 294 291 290 289 288 288 288 285 280 280 285 283 287 286 286 285 284 284 285 285 286 287 287 288 290 290 291 291 292 292 292 292 292 291 291 292 292
292 290 288 288 287 287 287 285 286 286 282 283 284 284 285 284 284 282 283 283 284 285 286 286 287 288 289 289 289 290 291 290 290 290 290 290 291 291
289 288 286 286 285 285 285 284 283 284 283 280 283 284 283 282 282 281 283 283 283 285 286 285 286 287 287 287 288 288 288 288 287 287 288 289 290 290
287 286 284 284 284 283 283 283 283 283 282 280 281 281 280 282 282 281 281 281 282 283 286 285 286 286 285 286 286 286 286 285 284 285 286 287 288 288
286 284 283 283 282 282 282 281 282 280 281 281 280 280 280 281 280 281 281 282 282 284 285 285 285 284 284 285 285 285 283 282 283 284 285 285 285 286
284 284 283 282 281 281 281 281 281 280 280 279 279 279 279 280 280 278 278 281 280 281 283 284 282 282 284 284 284 282 281 281 283 283 283 283 283 284
282 282 282 283 284 283 281 280 280 280 280 279 278 278 278 278 278 279 278 279 280 281 280 278 279 279 279 281 281 281 281 282 282 282 282 282 282 282
280 280 282 283 284 285 284 284 282 281 280 280 279 278 278 279 279 279 278 277 275 280 277 277 279 277 278 278 281 281 281 281 281 281 281 281 281 281
280 281 282 283 282 282 284 284 284 285 284 281 279 279 279 280 280 279 278 277 277 279 278 275 277 276 277 277 280 281 280 279 279 280 280 280 280 280
281 281 283 281 281 281 281 281 282 282 282 282 281 280 280 282 282 280 279 278 278 278 278 272 275 274 276 276 279 279 278 278 278 278 279 279 279 279
282 283 284 282 283 284 280 279 279 280 284 285 286 286 286 286 284 281 277 276 275 276 278 275 274 273 273 273 275 277 277 277 277 278 278 277 278 278
281 283 284 284 285 286 281 279 278 279 279 279 278 280 282 281 283 281 279 276 276 275 276 273 272 272 269 272 273 272 272 274 275 276 276 276 276 273
280 282 283 286 286 286 285 282 281 281 281 280 279 278 278 278 278 278 279 278 276 275 277 273 270 270 269 268 270 271 270 271 270 271 274 274 275 275
281 282 283 285 287 287 286 285 285 284 281 280 280 279 279 278 278 278 277 277 276 275 275 274 270 269 267 265 264 268 268 269 270 269 270 272 273 273
285 286 286 286 287 286 287 286 283 283 282 281 280 279 278 276 275 275 275 273 273 273 273 272 270 268 267 264 264 264 266 267 268 269 268 269 268 269
286 285 285 285 285 284 282 283 283 282 281 279 278 276 275 274 273 273 270 270 268 267 271 271 268 267 264 265 264 262 264 262 266 268 268 268 268 269
284 284 283 282 281 281 280 280 280 278 276 276 275 274 273 272 272 271 270 267 264 264 263 266 268 268 266 265 262 263 263 264 267 267 266 265 267 268
280 280 279 280 279 278 277 275 275 273 274 272 272 271 270 269 268 267 266 263 262 262 262 263 264 262 262 262 267 264 264 264 265 265 266 264 264 267
278 278 278 278 278 277 274 273 272 271 268 269 268 267 267 266 264 262 262 262 259 260 260 262 261 259 257 256 262 268 264 263 263 263 265 264 264 266
277 276 275 275 274 272 270 269 268 267 266 266 266 265 262 261 260 259 260 257 257 257 256 258 260 261 259 258 257 261 267 264 264 263 264 265 267 271
271 270 270 269 268 268 267 266 266 265 265 263 262 259 258 258 257 257 258 258 257 254 255 258 262 263 261 260 257 258 263 268 268 265 265 264 263 264
268 267 266 265 265 264 263 262 261 259 259 259 259 258 258 257 257 255 255 255 255 257 258 260 261 260 259 258 257 258 260 262 266 268 269 269 265 262
263 263 262 261 261 261 260 260 260 261 259 258 258 257 255 254 255 257 255 254 254 254 255 255 257 259 257 258 258 258 258 259 261 261 263 269 270 270
Wind_Speed
8 7 5 4 4 3 3 5 6 5 5 6 3 6 4 4 4 3 4 6 7 10 10 11 13 15 17 18 19 21 24 24 25 26 28 29 30 32
7 9 7 6 5 4 3 3 2 4 4 3 3 4 4 3 4 4 5 4 11 10 11 12 14 16 17 19 20 22 24 24 24 27 28 29 31 32
9 10 9 9 6 5 4 4 4 3 3 2 3 4 4 5 4 5 5 4 4 10 11 12 15 17 18 18 21 23 23 23 23 26 28 30 32 32
12 12 11 7 8 7 5 5 4 3 3 4 3 4 5 4 3 4 4 4 5 9 13 13 16 17 17 19 22 23 23 22 23 26 29 30 31 32
13 14 14 13 10 7 7 6 5 3 3 3 3 2 2 2 3 4 5 6 5 11 13 13 15 15 17 20 22 22 21 21 23 27 29 29 30 32
11 10 12 12 12 11 8 7 6 5 3 3 2 3 4 3 2 3 5 4 4 4 8 11 7 14 18 21 21 19 19 20 25 28 27 28 31 32
8 9 10 9 12 11 8 7 6 4 4 4 4 3 3 3 4 3 4 4 6 6 6 2 4 6 8 14 15 16 19 23 25 26 27 29 30 31
11 10 9 10 12 14 11 11 8 8 7 5 4 5 6 4 3 4 4 4 5 2 2 5 4 7 7 7 15 20 22 23 22 26 29 29 30 31
11 11 9 6 8 7 10 10 11 15 10 5 5 7 4 4 4 5 6 6 8 7 5 10 4 8 7 6 17 21 22 17 22 28 28 29 30 31
8 10 10 9 8 8 7 7 9 9 9 6 8 8 5 3 4 4 5 8 9 8 5 9 4 7 6 5 19 17 13 19 23 29 28 30 30 28
8 10 10 9 13 17 8 8 7 7 9 16 19 17 15 16 14 6 6 7 9 7 5 5 3 7 9 8 6 12 18 20 26 26 28 29 27 27
7 8 11 9 15 16 9 7 8 9 7 7 5 9 11 9 15 9 6 8 9 7 0 2 2 2 6 1 2 7 7 18 22 28 26 27 24 12
6 7 5 14 13 16 17 9 10 5 10 8 5 5 5 5 4 3 5 6 6 7 3 2 1 3 5 9 8 7 8 9 12 13 22 22 25 22
9 7 8 15 14 15 13 17 17 12 6 6 7 6 5 4 1 1 0 3 4 7 5 4 4 5 6 9 10 8 9 9 10 11 9 17 20 24
5 8 12 14 16 12 16 16 14 8 6 5 5 3 2 4 3 0 2 3 3 5 5 4 4 6 6 8 10 10 13 9 11 7 11 9 10 11
7 5 9 11 11 9 6 8 3 3 4 3 2 4 4 2 1 1 0 1 2 2 3 2 4 5 6 7 9 10 10 9 10 10 9 10 9 9
5 3 5 4 5 5 4 4 3 3 2 2 3 2 1 0 1 1 1 1 1 3 2 2 4 5 6 10 10 9 10 10 8 10 11 10 9 10
2 3 3 3 4 4 5 4 2 2 3 3 2 1 0 1 1 1 1 1 1 1 2 3 4 6 6 7 14 7 7 7 8 10 11 10 9 9
2 1 2 3 3 2 2 2 3 3 4 2 1 1 1 0 0 1 1 1 1 1 2 3 4 3 7 8 6 14 6 8 9 9 8 9 10 10
2 1 2 1 2 2 3 3 3 3 2 2 2 2 2 1 1 1 1 0 1 2 2 2 4 4 5 6 6 9 15 8 7 9 9 9 10 19
2 3 3 3 3 3 3 3 2 2 2 2 2 2 2 1 2 1 1 2 2 2 3 3 4 3 4 4 6 8 7 16 13 10 10 9 8 8
2 4 3 3 3 3 3 3 3 2 2 2 2 2 2 2 2 3 2 2 2 2 3 3 3 2 3 6 9 10 8 9 13 19 18 16 8 9
2 2 2 2 2 3 3 3 2 3 3 2 2 2 3 2 3 2 2 3 3 2 2 2 2 3 4 6 8 8 11 10 8 10 8 17 17 18
Wind_Direction
181 161 143 140 131 126 132 171 149 158 183 182 153 182 186 149 198 224 267 271 284 290 292 299 310 315 318 315 316 318 326 328 327 326 323 322 321 319
164 147 135 140 140 141 120 110 88 128 127 116 204 138 183 188 174 208 261 279 273 277 281 294 307 311 312 309 313 318 321 325 325 322 320 319 319 317
155 148 146 147 148 133 119 108 99 88 106 66 82 126 177 213 206 210 234 259 281 281 287 294 299 306 306 303 313 315 318 320 321 318 319 318 315 316
163 150 151 152 140 136 131 119 120 103 116 125 147 174 209 202 232 258 254 248 265 274 284 290 294 296 297 303 306 312 312 316 313 315 316 314 315 317
169 163 157 151 145 146 138 136 130 123 127 129 155 164 202 205 245 247 247 252 249 262 273 284 287 292 293 297 302 309 309 309 306 314 315 313 316 316
162 161 158 156 149 148 145 145 134 141 130 160 190 198 200 190 197 260 269 243 271 273 272 270 273 276 287 301 303 303 302 304 311 313 313 315 316 314
139 135 144 138 142 151 147 142 146 139 166 183 209 211 208 201 210 217 266 281 276 270 277 279 275 278 285 293 297 299 306 308 311 312 314 316 315 312
140 131 125 133 147 152 143 154 159 176 191 187 210 222 229 213 211 233 258 277 293 225 263 261 269 279 272 283 297 304 309 310 314 317 316 316 313 313
151 142 139 137 137 152 172 181 213 221 210 185 214 228 242 208 225 251 253 256 263 280 294 280 262 278 272 294 296 304 308 316 318 317 315 315 316 314
149 144 149 146 168 164 162 195 219 217 224 225 231 240 236 246 250 254 267 274 274 268 226 271 267 269 288 282 298 303 313 314 320 315 312 320 314 315
147 164 161 151 175 182 178 202 216 226 224 232 241 250 255 260 259 245 248 253 270 262 229 257 266 294 290 283 258 311 316 318 320 311 321 316 318 321
169 175 172 174 181 183 188 191 218 227 199 236 248 261 266 267 267 258 267 264 273 285 298 293 282 312 289 259 339 309 315 315 314 317 315 319 322 320
176 185 187 206 193 196 204 203 220 184 218 225 218 228 225 225 230 229 259 263 271 273 17 182 270 286 266 299 308 313 308 322 309 308 318 316 323 322
188 192 198 201 210 210 217 227 232 230 216 215 227 228 220 208 187 66 355 281 288 297 335 325 286 300 289 294 298 311 314 305 306 309 307 320 319 324
195 186 181 197 211 218 230 231 232 225 218 213 228 227 116 91 79 35 238 261 272 284 291 286 296 307 297 292 297 302 309 310 298 308 311 320 325 316
190 186 191 203 203 208 208 235 224 198 206 194 140 104 109 136 200 121 295 316 297 290 299 265 292 288 291 290 297 301 304 293 305 308 320 320 313 309
152 165 192 191 196 192 165 177 172 142 167 149 135 129 118 85 291 56 306 296 274 303 307 328 323 307 291 288 289 286 290 293 306 325 323 313 316 313
152 191 188 181 185 179 171 161 170 138 115 114 120 132 180 317 331 4 335 289 295 299 309 313 325 315 307 292 286 289 282 303 321 314 311 315 314 318
141 166 203 183 183 173 122 119 151 95 87 101 118 109 108 181 184 264 316 299 311 304 295 324 315 311 303 299 286 290 321 320 302 303 309 316 312 315
99 134 211 114 121 136 109 127 129 129 151 157 140 119 107 161 223 245 265 156 272 288 311 293 275 273 287 307 309 297 299 291 300 306 312 307 303 317
92 96 77 90 103 103 114 112 120 150 141 129 123 119 149 178 226 218 226 223 228 255 263 274 293 7 295 291 277 282 292 316 312 320 304 301 310 319
100 107 103 109 118 122 130 134 143 138 147 168 178 158 188 191 207 192 198 233 229 239 274 300 308 280 272 274 281 293 304 311 312 312 312 316 317 320
95 108 131 131 130 134 142 156 170 178 158 160 155 178 184 204 207 236 227 204 214 236 256 283 284 281 268 273 281 291 294 304 314 312 315 320 328 322